Lapse_Rate
6.5 6.5 6.5 6.5 6.5 6.5 6.5 6.5 6.5 6.5 6.5 6.5 6.5 6.5 7.0 7.5 7.6 7.6 7.8 8.1 8.3 8.5 8.6 8.6 8.8 8.9 8.6 8.8 8.0 8.6 8.6 8.7 9.2 8.4 7.9 8.3 8.7 8.3 8.5 9.1 9.4 9.6 9.5 9.5
6.5 6.5 6.5 6.5 6.5 6.5 6.5 6.5 6.5 6.5 6.5 6.5 7.2 7.4 7.2 7.3 7.5 7.5 7.7 8.1 8.3 8.5 8.5 8.5 8.7 8.8 8.9 8.2 9.0 9.4 8.2 9.0 8.8 7.7 8.4 8.5 8.0 8.5 9.2 9.4 9.4 9.5 9.5 9.6
6.5 6.5 6.5 6.5 6.5 6.5 6.5 6.5 6.5 6.5 6.5 6.5 6.5 6.6 7.0 7.4 7.5 7.6 7.9 7.6 8.3 8.5 8.6 8.7 8.8 9.0 8.9 9.1 9.4 8.1 8.5 8.9 8.0 8.0 7.9 7.8 8.1 9.3 9.3 9.3 9.4 9.4 9.5 9.6
6.5 6.5 6.5 6.5 6.5 6.5 6.5 6.5 6.5 6.5 6.5 6.7 6.9 7.4 7.6 7.9 7.8 7.3 6.6 6.9 8.3 8.6 8.7 8.9 9.1 9.1 9.3 9.4 9.1 8.5 8.9 7.7 8.1 7.9 7.7 8.0 9.0 9.3 9.4 9.5 9.4 9.4 9.5 9.5
6.5 6.5 6.5 6.5 6.5 6.5 6.5 6.5 6.5 6.5 6.5 7.1 7.5 7.5 7.4 8.0 6.3 6.2 5.4 7.3 8.3 8.1 9.1 9.1 8.9 8.8 9.3 9.2 9.2 8.7 7.9 8.1 7.6 7.4 7.7 8.5 9.1 9.2 9.3 9.4 9.4 9.5 9.4 9.3
6.5 6.5 6.5 6.5 6.5 7.0 6.7 6.5 6.7 6.8 6.6 6.7 6.9 6.5 6.5 7.8 6.7 6.3 7.1 8.5 7.4 7.2 7.2 7.0 8.1 9.2 9.0 8.9 9.0 8.8 7.8 7.1 7.1 7.5 7.9 9.0 9.1 9.2 9.5 9.5 9.4 9.4 8.9 8.8
6.5 6.5 6.5 6.5 6.7 7.2 6.5 6.5 6.9 6.9 7.1 7.0 6.5 6.9 7.7 5.7 6.1 7.8 8.5 8.3 6.4 6.1 7.3 8.8 9.2 8.2 8.1 9.0 8.8 7.1 6.5 6.9 7.4 7.6 8.8 8.5 9.0 9.5 9.5 9.4 9.0 8.4 8.1 7.9
6.5 6.5 6.5 7.0 6.7 6.5 6.7 7.5 7.5 7.7 7.7 7.4 7.1 6.9 6.6 6.2 7.6 8.2 7.4 5.2 5.3 7.3 8.8 9.1 9.1 8.6 8.9 8.8 7.4 6.2 6.7 7.2 7.5 8.0 8.3 8.8 9.5 9.4 9.4 9.1 8.8 8.8 8.6 8.4
6.5 6.5 6.8 7.2 7.0 7.5 7.9 7.2 7.5 7.3 8.0 7.2 6.7 7.4 6.3 6.8 7.7 7.8 4.9 6.2 8.3 8.7 8.7 9.0 7.5 8.1 8.8 7.2 6.2 6.4 6.8 7.5 8.0 8.2 9.1 9.4 9.3 9.2 9.2 9.2 9.0 8.5 8.6 8.6
6.5 6.6 6.8 6.8 7.8 8.1 8.0 7.6 7.9 7.8 7.0 6.5 6.4 6.7 6.9 7.6 8.2 5.1 5.8 7.6 8.7 8.8 8.7 8.6 7.7 6.8 7.1 6.0 5.8 6.7 6.8 7.1 7.5 8.8 7.7 8.9 9.5 9.5 9.2 8.9 8.5 8.5 8.7 8.6
6.5 6.7 7.3 7.3 7.6 7.7 8.0 8.1 8.1 7.4 7.0 6.7 6.1 6.8 7.3 8.1 6.3 5.4 6.7 8.3 8.8 8.6 8.5 8.6 7.7 6.8 6.3 6.1 5.8 6.8 6.4 6.6 8.1 8.3 7.6 8.6 9.4 9.3 9.2 9.1 8.3 7.7 8.1 8.1
6.5 7.1 7.1 7.4 7.9 8.2 8.2 7.8 7.7 7.1 7.1 6.1 7.8 7.8 8.2 7.3 5.3 6.1 7.6 8.6 8.7 8.6 7.7 8.4 7.5 7.0 6.3 6.0 6.0 6.1 6.2 7.7 7.6 6.3 7.8 9.2 9.2 9.1 9.1 8.7 8.2 7.5 7.1 6.9
6.9 7.9 7.9 8.3 8.5 8.5 7.8 7.9 8.2 8.2 8.1 8.0 8.0 7.8 5.0 5.4 5.8 6.8 7.5 8.6 8.1 7.8 7.8 7.7 7.3 7.0 6.3 4.2 3.3 3.7 4.8 5.5 6.5 7.4 9.0 9.0 8.9 8.8 8.6 9.0 8.9 8.2 7.4 6.4
8.1 8.0 7.5 7.9 7.5 8.3 8.4 8.4 8.4 8.5 8.3 7.0 6.7 5.5 5.9 6.1 8.0 8.3 8.5 7.7 7.2 7.5 7.7 7.5 7.0 6.4 5.3 4.7 3.4 3.7 4.4 5.3 6.4 8.5 9.0 9.0 8.7 8.4 8.6 8.3 8.3 8.6 7.6 6.4
8.0 8.0 7.9 8.2 8.3 8.3 8.5 8.4 8.1 8.1 8.0 6.5 6.0 5.9 6.3 7.1 8.3 8.4 6.7 5.9 5.6 6.4 6.4 6.1 5.4 5.7 4.9 4.3 4.4 5.2 6.1 7.3 5.8 7.4 8.9 8.7 8.6 8.5 8.6 8.5 8.5 8.5 8.1 6.7
8.1 8.1 8.1 7.9 8.0 8.1 8.2 8.1 8.0 8.0 7.0 6.4 6.4 5.7 6.7 7.6 7.2 6.5 4.9 3.4 5.6 6.1 4.3 2.6 2.8 3.9 3.8 5.0 5.5 6.9 8.6 5.9 5.2 7.7 9.0 9.0 9.0 8.7 8.6 8.6 8.5 8.4 8.1 6.4
7.3 7.2 7.5 7.5 7.7 7.9 8.0 8.1 6.5 5.7 6.6 7.1 6.6 5.5 4.4 4.1 4.1 4.2 4.5 2.6 2.7 3.3 3.1 3.1 4.3 5.0 4.2 5.1 5.6 8.5 9.0 8.7 5.1 9.1 9.0 9.0 9.0 8.8 8.7 8.5 8.5 8.3 7.4 6.1
7.4 8.0 8.2 8.1 8.0 8.0 6.4 6.0 5.2 5.7 6.3 5.8 3.4 3.2 3.5 3.9 4.9 4.3 3.4 2.5 2.9 3.9 4.1 4.0 3.7 4.4 4.5 5.4 5.5 6.6 6.8 7.1 8.3 8.7 9.0 9.0 9.0 9.0 8.6 8.5 8.6 8.2 6.8 6.4
7.8 7.3 7.3 7.0 7.6 6.4 5.7 5.2 5.1 4.3 3.4 3.4 3.6 3.9 3.4 3.4 3.7 3.6 2.8 3.3 3.8 4.4 5.9 4.3 4.6 5.5 5.7 4.6 4.7 6.3 6.4 6.4 8.3 8.9 8.9 8.7 8.9 9.0 8.7 8.6 8.5 8.4 7.1 6.4
6.6 7.3 6.8 7.3 6.1 4.4 4.9 4.3 3.5 4.0 3.3 3.2 3.1 3.9 4.5 4.0 2.7 2.7 3.1 3.8 4.5 5.8 4.6 5.0 5.0 6.1 5.8 4.6 4.0 6.6 6.0 6.0 7.4 8.1 8.4 8.9 8.8 8.6 8.7 8.7 8.2 8.3 7.5 6.6
4.8 5.4 4.0 3.5 3.8 3.2 3.1 2.9 3.3 4.1 3.1 2.5 3.5 4.4 3.7 3.2 2.8 2.4 4.0 6.0 5.7 4.2 4.6 4.4 5.5 6.7 6.2 5.7 5.3 5.6 5.8 6.2 6.5 6.8 8.3 8.7 8.7 8.7 8.7 8.7 8.7 7.6 7.4 7.0
5.3 3.8 3.5 3.4 3.4 4.0 2.9 2.6 3.2 3.1 3.3 3.3 2.7 2.4 2.8 4.2 3.8 3.6 3.3 4.3 6.6 3.7 5.8 6.7 6.9 5.5 6.0 3.4 5.8 5.3 5.8 6.0 6.4 7.1 8.2 8.7 8.7 8.7 8.7 8.7 8.7 8.7 7.3 6.7
5.7 4.3 4.9 4.3 3.9 4.9 3.4 3.1 3.1 3.3 3.7 3.5 3.4 3.5 3.9 4.0 3.6 4.1 5.6 5.4 5.6 5.7 5.7 6.1 6.1 3.6 2.9 4.5 5.1 5.3 5.6 5.7 6.4 6.6 6.9 7.1 7.8 8.7 8.7 8.7 8.7 8.8 8.6 7.4
6.1 4.9 5.1 5.5 3.7 4.0 5.0 4.4 3.3 3.1 3.4 3.7 3.9 4.0 4.8 5.4 5.7 6.6 6.1 5.7 5.6 5.9 6.1 6.4 4.9 3.0 2.7 5.0 5.1 5.3 5.6 6.1 6.3 6.6 6.6 4.4 6.8 7.3 8.4 8.1 8.3 8.7 7.9 7.2
4.7 4.7 5.4 5.3 4.7 6.6 5.3 3.8 3.7 4.1 4.5 5.1 5.2 5.3 4.6 6.5 6.4 7.0 6.3 6.6 6.6 6.4 6.5 4.8 3.6 2.7 4.2 5.0 5.1 5.0 5.3 5.7 6.1 6.5 6.9 7.6 6.5 6.7 7.6 7.3 7.6 7.3 6.2 6.0
5.1 5.1 6.5 6.1 7.1 6.8 6.2 4.7 6.2 6.2 6.2 6.6 6.6 6.6 6.3 6.4 6.7 6.7 6.7 6.3 6.3 6.0 6.1 5.0 4.3 3.6 4.8 4.9 4.9 4.5 4.8 5.1 4.7 5.5 6.1 6.6 6.2 6.4 6.2 6.4 6.2 6.4 6.1 5.8
5.5 5.3 6.2 6.0 5.4 5.1 5.4 6.0 6.3 6.4 4.8 4.4 5.2 6.4 6.8 6.5 6.9 7.1 6.6 6.3 6.5 6.7 6.2 5.4 4.8 4.0 4.9 5.0 4.6 4.3 4.3 4.7 4.5 5.5 5.8 6.3 6.4 6.4 6.0 5.9 5.9 5.6 5.3 5.0
Wind_Speed
21 20 18 22 29 30 25 27 17 37 31 32 31 30 28 25 20 19 18 23 23 21 17 11 10 9 8 6 5 6 7 9 7 5 7 10 12 13 14 14 15 16 17 18
14 21 20 23 29 32 28 30 31 33 35 32 30 23 21 20 21 18 23 26 23 21 18 11 11 10 5 4 5 8 9 8 4 6 9 11 12 14 15 16 16 17 17 18
6 7 5 10 24 22 17 15 16 21 26 24 23 22 16 17 19 23 26 16 22 21 15 9 9 6 6 6 7 8 8 5 4 7 10 12 13 15 16 17 17 18 18 18
6 4 7 3 17 19 18 19 22 21 22 23 20 17 17 24 25 18 11 13 18 14 8 6 9 9 8 5 7 7 5 4 6 9 11 13 14 15 15 16 17 17 18 18
4 8 20 13 7 7 11 15 16 16 14 18 22 25 22 21 5 8 7 15 13 9 11 10 9 11 7 9 7 5 3 4 7 10 12 13 15 15 16 16 16 17 17 19
3 10 15 11 24 5 5 14 8 7 19 20 17 14 18 22 6 7 14 15 8 8 10 10 9 7 8 8 6 4 3 5 7 10 12 14 15 15 15 15 16 14 18 18
12 10 12 13 3 1 4 10 10 20 24 25 22 18 24 10 12 18 17 13 4 6 8 7 5 5 7 6 4 1 3 6 8 10 12 13 14 14 16 15 15 14 15 15
5 7 11 4 3 5 14 24 28 28 28 26 21 18 12 8 17 17 13 1 4 5 5 5 6 5 6 4 2 1 4 7 9 10 10 10 14 14 15 15 13 13 14 14
12 10 14 12 16 18 24 25 28 24 24 18 18 23 6 13 19 11 4 4 4 4 6 7 4 4 3 2 1 3 5 8 9 11 11 11 13 13 12 13 11 12 11 12
14 14 26 21 21 25 28 24 23 23 15 14 14 8 15 16 13 3 3 4 3 6 8 5 3 3 2 2 1 5 7 8 9 10 11 11 10 10 11 11 11 11 11 12
18 22 28 23 23 23 26 25 24 18 14 14 6 13 14 13 5 2 4 3 5 7 5 2 3 3 2 0 3 5 6 7 9 8 10 11 10 9 10 11 10 12 11 12
18 26 23 28 26 28 30 26 23 17 15 9 12 12 11 7 2 3 3 6 8 5 2 3 3 2 1 1 3 5 6 6 6 7 8 9 9 11 12 12 17 19 19 15
21 23 27 30 31 30 24 24 24 20 16 16 8 5 2 2 2 4 6 7 5 1 1 2 2 2 1 2 0 2 5 6 6 7 8 8 9 10 12 12 16 15 16 20
23 23 25 26 20 24 25 24 20 17 8 4 3 2 2 3 3 4 6 4 1 1 1 0 2 2 1 1 1 3 5 6 6 7 7 8 9 9 9 10 11 11 14 16
21 17 17 20 22 18 17 18 19 16 7 4 2 2 2 5 6 6 2 3 2 2 2 2 2 2 2 0 2 4 5 5 6 6 7 7 7 8 9 10 9 9 10 13
20 18 17 13 16 17 18 18 16 11 3 2 2 2 4 6 2 2 4 3 2 2 2 2 3 3 2 2 3 4 4 1 6 6 6 6 7 7 8 8 9 8 8 10
10 10 12 15 15 17 14 10 6 4 3 4 5 3 2 1 1 1 1 1 1 1 0 1 4 1 2 3 3 4 4 4 5 5 5 6 6 6 7 7 8 8 8 10
7 10 11 12 12 8 5 5 4 3 4 4 2 1 0 1 2 1 1 1 2 2 1 1 0 2 2 2 3 3 3 4 4 5 5 5 6 5 6 6 7 8 8 9
9 10 9 5 3 4 3 3 3 3 3 3 3 2 1 1 1 1 1 3 3 3 1 2 4 4 2 1 3 2 3 3 4 4 4 4 4 5 5 6 6 7 7 7
12 10 7 5 3 3 4 3 2 1 2 3 2 3 3 0 2 2 3 5 5 4 2 3 5 4 3 2 3 2 2 2 3 3 3 4 4 4 4 6 6 6 7 7
10 7 4 3 3 2 1 1 1 1 2 2 4 3 3 3 2 4 5 4 1 3 3 3 4 3 4 3 3 1 1 2 1 2 3 3 3 3 3 4 5 6 6 6
8 4 5 4 4 3 2 1 1 1 1 2 1 2 4 4 5 6 6 7 3 2 5 4 4 4 3 4 2 2 2 1 0 1 2 2 3 2 3 3 4 5 5 6
8 6 5 4 5 4 3 1 0 1 2 2 3 3 3 3 3 4 5 1 4 5 6 5 4 7 7 4 3 3 3 2 1 0 0 1 2 2 3 3 3 4 4 5
8 4 4 3 3 3 3 3 0 1 1 1 2 3 4 4 4 2 4 7 8 6 6 5 5 9 8 3 3 3 3 3 2 2 1 1 0 0 2 3 3 3 4 4
6 4 5 6 6 4 3 3 2 1 2 3 4 3 2 2 3 5 5 6 8 7 5 1 5 8 5 3 3 4 3 3 3 3 3 2 1 1 2 2 2 3 3 3
6 5 5 6 3 3 3 4 2 2 2 2 2 1 3 4 4 4 4 5 6 6 4 1 3 5 4 4 4 4 3 3 3 4 3 3 2 2 2 2 2 2 3 3
5 5 4 4 3 2 3 3 3 2 1 2 3 3 4 5 4 4 4 5 5 4 3 2 3 5 4 4 4 4 4 3 4 4 4 4 3 3 3 3 3 3 3 2
Wind_Direction
265 278 284 277 276 270 262 256 253 270 274 281 289 301 313 313 316 319 317 322 315 315 312 278 228 194 195 199 184 211 217 226 236 257 287 299 300 301 297 293 290 290 289 287
270 280 270 270 269 270 264 262 260 262 272 273 286 300 312 316 316 321 309 311 323 313 308 265 220 200 209 215 254 243 230 237 263 288 302 305 306 302 299 298 297 296 293 292
254 298 327 271 254 260 257 248 255 262 267 290 303 316 335 317 313 299 304 328 316 310 303 249 220 250 249 282 269 228 234 249 290 305 307 310 308 304 303 303 301 298 297 297
280 286 229 279 298 279 279 284 278 275 281 291 311 333 326 303 300 304 297 307 299 307 288 229 257 281 299 282 244 222 232 282 308 312 310 311 306 305 305 303 303 302 302 301
262 255 283 279 296 315 302 289 291 293 320 331 319 306 293 292 305 269 270 281 280 283 272 268 286 297 271 271 237 213 252 304 317 316 312 309 307 309 307 305 304 305 304 303
261 279 292 344 314 342 286 289 65 1 325 304 291 295 303 320 359 303 275 292 260 257 267 284 261 246 262 266 227 242 311 317 315 312 308 308 309 310 307 306 306 312 304 301
244 260 265 281 6 183 278 318 310 313 314 311 307 303 314 357 327 304 299 298 288 283 273 248 285 268 259 237 242 18 321 312 313 312 310 311 307 309 310 313 312 301 301 299
231 240 282 324 164 244 312 315 310 311 309 303 308 308 306 314 307 303 307 240 255 252 251 279 294 262 256 237 82 346 310 314 314 316 315 308 312 313 316 311 307 309 306 305
236 249 285 287 284 295 293 298 303 307 310 315 310 307 329 307 301 312 257 246 228 255 290 303 288 233 239 98 349 308 313 316 317 318 311 315 316 316 312 319 316 311 309 309
270 250 272 280 294 287 294 295 303 303 311 306 307 334 291 292 310 239 216 252 252 294 302 300 197 156 106 130 304 309 316 322 320 315 324 315 319 315 317 320 317 316 315 315
271 280 286 275 285 302 303 304 309 315 309 305 271 287 285 307 304 223 273 293 302 303 301 254 151 139 130 164 309 313 321 317 313 319 319 318 316 320 313 313 319 313 317 321
268 282 288 293 302 306 308 312 314 310 303 253 286 288 321 316 222 243 294 299 306 305 244 150 152 162 203 291 310 322 313 315 325 316 321 317 320 318 311 312 310 315 322 329
276 286 294 297 299 307 313 311 306 313 295 298 310 317 260 270 223 245 276 298 305 301 147 152 191 239 269 33 22 315 309 312 319 315 320 323 324 323 324 327 326 325 338 341
285 291 294 299 308 314 309 311 313 310 321 308 288 235 259 261 270 283 306 344 21 104 125 238 280 296 271 209 211 293 294 295 305 320 321 324 327 325 327 329 333 338 347 347
300 306 305 308 304 308 318 318 314 308 310 278 280 251 264 287 301 325 46 55 70 86 50 345 325 291 291 237 274 295 302 324 326 319 318 319 319 332 332 335 341 343 346 353
314 307 308 308 310 314 318 315 310 313 289 305 319 300 291 306 328 95 75 34 327 34 21 349 305 283 280 245 280 278 294 335 316 319 321 330 331 340 340 344 351 355 358 359
296 309 317 313 318 320 328 340 358 5 340 343 301 298 302 81 107 93 65 52 34 17 322 299 324 289 241 254 291 314 323 334 327 310 332 336 335 344 345 349 358 2 4 9
302 296 298 300 303 314 319 316 330 344 316 333 21 62 128 251 332 151 192 298 295 298 275 358 2 173 225 280 312 322 324 327 327 328 327 343 344 349 350 355 6 10 8 12
309 293 291 271 259 296 297 281 305 319 352 6 339 342 343 310 309 320 288 294 311 304 130 199 193 209 229 207 281 290 318 325 322 331 330 338 348 360 5 3 13 18 19 20
304 290 279 256 312 296 269 284 318 352 7 347 320 293 291 274 324 303 308 300 291 293 226 252 229 223 198 193 255 274 306 315 315 333 356 344 356 7 11 28 21 27 30 31
291 277 237 246 267 281 330 332 328 359 346 318 309 331 329 331 320 314 291 295 87 212 229 239 232 218 213 216 233 251 271 283 307 342 348 353 359 8 22 29 37 35 36 38
279 243 227 229 231 221 208 199 31 296 308 317 339 339 334 332 337 316 283 261 317 303 279 270 254 218 207 191 232 228 230 223 231 314 352 354 5 19 32 33 43 48 48 43
253 234 230 214 215 207 166 138 41 5 8 7 359 352 337 317 309 318 326 88 300 292 286 268 226 179 178 210 216 218 213 210 205 183 338 0 19 27 39 41 53 61 58 53
247 224 237 222 212 210 206 170 144 30 353 332 285 275 308 327 330 304 280 291 288 288 298 288 188 179 186 207 217 216 217 215 202 194 184 291 74 88 66 71 76 78 77 63
215 197 203 197 218 229 171 149 156 188 287 291 288 274 278 296 283 312 308 315 324 327 322 60 178 179 200 212 217 212 214 214 205 194 205 200 198 165 131 106 99 88 78 64
187 182 204 216 231 201 173 167 203 196 266 278 274 326 320 295 277 279 305 317 323 326 329 186 198 198 208 209 212 204 209 195 194 204 199 191 180 186 164 137 133 113 109 97
174 177 206 205 190 174 170 173 188 209 219 273 297 309 326 323 318 300 328 326 326 315 324 297 231 215 216 203 203 193 199 199 209 193 196 190 190 174 175 170 154 138 137 146